status,avgMeasuredTime,avgSpeed,extID,medianMeasuredTime,TIMESTAMP,vehicleCount,_id,REPORT_ID
OK,258,10,689,258,2014-08-01T07:50:00,0,20746241,195365
OK,258,10,689,258,2014-08-01T07:55:00,0,20746413,195365
OK,258,10,689,258,2014-08-01T08:00:00,0,20746744,195365
OK,258,10,689,258,2014-08-01T08:05:00,0,20747193,195365
OK,258,10,689,258,2014-08-01T08:10:00,0,20747566,195365
OK,258,10,689,258,2014-08-01T08:15:00,0,20748015,195365
OK,258,10,689,258,2014-08-01T08:20:00,0,20748464,195365
OK,258,10,689,258,2014-08-01T08:25:00,0,20748913,195365
OK,258,10,689,258,2014-08-01T08:30:00,0,20749362,195365
OK,258,10,689,258,2014-08-01T08:35:00,0,20749811,195365
OK,258,10,689,258,2014-08-01T08:40:00,0,20750260,195365
OK,258,10,689,258,2014-08-01T08:45:00,0,20750709,195365
OK,258,10,689,258,2014-08-01T08:50:00,0,20751158,195365
OK,258,10,689,258,2014-08-01T08:55:00,0,20751607,195365
OK,258,10,689,258,2014-08-01T09:00:00,0,20752056,195365
OK,258,10,689,258,2014-08-01T09:05:00,0,20752505,195365
OK,90,30,689,90,2014-08-01T09:10:00,1,20752954,195365
OK,70,39,689,70,2014-08-01T09:15:00,2,20753403,195365
OK,41,67,689,41,2014-08-01T09:20:00,1,20753852,195365
OK,41,67,689,41,2014-08-01T09:25:00,0,20754301,195365
OK,41,67,689,41,2014-08-01T09:30:00,0,20754750,195365
OK,41,67,689,41,2014-08-01T09:35:00,0,20755199,195365
OK,41,67,689,41,2014-08-01T09:40:00,0,20755648,195365
OK,41,67,689,41,2014-08-01T09:45:00,0,20756097,195365
OK,41,67,689,41,2014-08-01T09:50:00,0,20756546,195365
OK,41,67,689,41,2014-08-01T09:55:00,0,20756995,195365
OK,41,67,689,41,2014-08-01T10:00:00,0,20757444,195365
OK,41,67,689,41,2014-08-01T10:05:00,0,20757893,195365
OK,41,67,689,41,2014-08-01T10:10:00,0,20758342,195365
OK,41,67,689,41,2014-08-01T10:15:00,0,20758791,195365
OK,41,67,689,41,2014-08-01T10:20:00,0,20759240,195365
OK,41,67,689,41,2014-08-01T10:25:00,0,20759689,195365
OK,41,67,689,41,2014-08-01T10:30:00,0,20760138,195365
OK,41,67,689,41,2014-08-01T10:35:00,0,20760587,195365
OK,41,67,689,41,2014-08-01T10:40:00,0,20761036,195365
OK,41,67,689,41,2014-08-01T10:45:00,0,20761485,195365
OK,41,67,689,41,2014-08-01T10:50:00,0,20761934,195365
OK,41,67,689,41,2014-08-01T10:55:00,0,20762383,195365
OK,41,67,689,41,2014-08-01T11:00:00,0,20762832,195365
OK,41,67,689,41,2014-08-01T11:05:00,0,20763281,195365
OK,92,30,689,92,2014-08-01T11:10:00,1,20763730,195365
OK,92,30,689,92,2014-08-01T11:15:00,0,20764179,195365
OK,92,30,689,92,2014-08-01T11:20:00,0,20764627,195365
OK,92,30,689,92,2014-08-01T11:25:00,0,20765076,195365
OK,92,30,689,92,2014-08-01T11:30:00,0,20765525,195365
OK,92,30,689,92,2014-08-01T11:35:00,0,20765974,195365
OK,92,30,689,92,2014-08-01T11:40:00,0,20766423,195365
OK,92,30,689,92,2014-08-01T11:45:00,0,20766872,195365
OK,92,30,689,92,2014-08-01T11:50:00,0,20767321,195365
OK,92,30,689,92,2014-08-01T11:55:00,0,20767770,195365
OK,92,30,689,92,2014-08-01T12:00:00,0,20768219,195365
OK,92,30,689,92,2014-08-01T12:05:00,0,20768668,195365
OK,101,27,689,101,2014-08-01T12:10:00,1,20769117,195365
OK,101,27,689,101,2014-08-01T12:15:00,0,20769566,195365
OK,101,27,689,101,2014-08-01T12:20:00,0,20770015,195365
OK,101,27,689,101,2014-08-01T12:25:00,0,20770464,195365
OK,101,27,689,101,2014-08-01T12:30:00,0,20770913,195365
OK,101,27,689,101,2014-08-01T12:35:00,0,20771362,195365
OK,101,27,689,101,2014-08-01T12:40:00,0,20771811,195365
OK,101,27,689,101,2014-08-01T12:45:00,0,20772260,195365
OK,101,27,689,101,2014-08-01T12:50:00,0,20772709,195365
OK,101,27,689,101,2014-08-01T12:55:00,0,20773158,195365
OK,101,27,689,101,2014-08-01T13:00:00,0,20773607,195365
OK,101,27,689,101,2014-08-01T13:05:00,0,20774056,195365
OK,101,27,689,101,2014-08-01T13:10:00,0,20774505,195365
OK,101,27,689,101,2014-08-01T13:15:00,0,20774954,195365
OK,101,27,689,101,2014-08-01T13:20:00,0,20775403,195365
OK,101,27,689,101,2014-08-01T13:25:00,0,20775852,195365
OK,101,27,689,101,2014-08-01T13:30:00,0,20776301,195365
OK,101,27,689,101,2014-08-01T13:35:00,0,20776750,195365
OK,101,27,689,101,2014-08-01T13:40:00,0,20777199,195365
OK,101,27,689,101,2014-08-01T13:45:00,0,20777648,195365
OK,101,27,689,101,2014-08-01T13:50:00,0,20778097,195365
OK,101,27,689,101,2014-08-01T13:55:00,0,20778546,195365
OK,101,27,689,101,2014-08-01T14:00:00,0,20778995,195365
OK,101,27,689,101,2014-08-01T14:05:00,0,20779444,195365
OK,101,27,689,101,2014-08-01T14:10:00,0,20779893,195365
OK,92,30,689,92,2014-08-01T14:15:00,1,20780342,195365
OK,92,30,689,92,2014-08-01T14:20:00,0,20780791,195365
OK,92,30,689,92,2014-08-01T14:25:00,0,20781240,195365
OK,80,34,689,80,2014-08-01T14:30:00,1,20781689,195365
OK,80,34,689,80,2014-08-01T14:35:00,0,20782138,195365
OK,80,34,689,80,2014-08-01T14:40:00,0,20782587,195365
OK,80,34,689,80,2014-08-01T14:45:00,0,20783036,195365
OK,80,34,689,80,2014-08-01T14:50:00,0,20783485,195365
OK,80,34,689,80,2014-08-01T14:55:00,0,20783934,195365
OK,80,34,689,80,2014-08-01T15:00:00,0,20784383,195365
OK,80,34,689,80,2014-08-01T15:05:00,0,20784832,195365
OK,80,34,689,80,2014-08-01T15:10:00,0,20785281,195365
OK,80,34,689,80,2014-08-01T15:15:00,0,20785730,195365
OK,80,34,689,80,2014-08-01T15:20:00,0,20786179,195365
OK,80,34,689,80,2014-08-01T15:25:00,0,20786628,195365
OK,80,34,689,80,2014-08-01T15:30:00,0,20787077,195365
OK,80,34,689,80,2014-08-01T15:35:00,0,20787526,195365
OK,80,34,689,80,2014-08-01T15:40:00,0,20787975,195365
OK,80,34,689,80,2014-08-01T15:45:00,0,20788424,195365
OK,80,34,689,80,2014-08-01T15:50:00,0,20788873,195365
OK,80,34,689,80,2014-08-01T15:55:00,0,20789322,195365
OK,80,34,689,80,2014-08-01T16:00:00,0,20789771,195365
OK,80,34,689,80,2014-08-01T16:05:00,0,20790220,195365
OK,80,34,689,80,2014-08-01T16:10:00,0,20790669,195365
OK,80,34,689,80,2014-08-01T16:15:00,0,20791118,195365
OK,80,34,689,80,2014-08-01T16:20:00,0,20791567,195365
OK,80,34,689,80,2014-08-01T16:25:00,0,20792016,195365
OK,80,34,689,80,2014-08-01T16:30:00,0,20792465,195365
OK,80,34,689,80,2014-08-01T16:35:00,0,20792914,195365
OK,80,34,689,80,2014-08-01T16:40:00,0,20793363,195365
OK,80,34,689,80,2014-08-01T16:45:00,0,20793812,195365
OK,80,34,689,80,2014-08-01T16:50:00,0,20794261,195365
OK,80,34,689,80,2014-08-01T16:55:00,0,20794710,195365
OK,80,34,689,80,2014-08-01T17:00:00,0,20795159,195365
OK,80,34,689,80,2014-08-01T17:05:00,0,20795608,195365
OK,80,34,689,80,2014-08-01T17:10:00,0,20796057,195365
OK,80,34,689,80,2014-08-01T17:15:00,0,20796506,195365
OK,80,34,689,80,2014-08-01T17:20:00,0,20796955,195365
OK,80,34,689,80,2014-08-01T17:25:00,0,20797404,195365
OK,80,34,689,80,2014-08-01T17:30:00,0,20797853,195365
OK,80,34,689,80,2014-08-01T17:35:00,0,20798302,195365
OK,80,34,689,80,2014-08-01T17:40:00,0,20798751,195365
OK,80,34,689,80,2014-08-01T17:45:00,0,20799200,195365
OK,80,34,689,80,2014-08-01T17:50:00,0,20799649,195365
OK,80,34,689,80,2014-08-01T17:55:00,0,20800098,195365
OK,80,34,689,80,2014-08-01T18:00:00,0,20800547,195365
OK,80,34,689,80,2014-08-01T18:05:00,0,20800996,195365
OK,80,34,689,80,2014-08-01T18:10:00,0,20801445,195365
OK,80,34,689,80,2014-08-01T18:15:00,0,20801894,195365
OK,80,34,689,80,2014-08-01T18:20:00,0,20802343,195365
OK,80,34,689,80,2014-08-01T18:25:00,0,20802792,195365
OK,80,34,689,80,2014-08-01T18:30:00,0,20803241,195365
OK,80,34,689,80,2014-08-01T18:35:00,0,20803690,195365
OK,80,34,689,80,2014-08-01T18:40:00,0,20804139,195365
OK,80,34,689,80,2014-08-01T18:45:00,0,20804588,195365
OK,80,34,689,80,2014-08-01T18:50:00,0,20805037,195365
OK,80,34,689,80,2014-08-01T18:55:00,0,20805486,195365
OK,80,34,689,80,2014-08-01T19:00:00,0,20805935,195365
OK,80,34,689,80,2014-08-01T19:05:00,0,20806384,195365
OK,80,34,689,80,2014-08-01T19:10:00,0,20806833,195365
OK,80,34,689,80,2014-08-01T19:15:00,0,20807282,195365
OK,80,34,689,80,2014-08-01T19:20:00,0,20807731,195365
OK,80,34,689,80,2014-08-01T19:25:00,0,20808180,195365
OK,80,34,689,80,2014-08-01T19:30:00,0,20808629,195365
OK,80,34,689,80,2014-08-01T19:35:00,0,20809078,195365
OK,80,34,689,80,2014-08-01T19:40:00,0,20809527,195365
OK,80,34,689,80,2014-08-01T19:45:00,0,20809976,195365
OK,80,34,689,80,2014-08-01T19:50:00,0,20810425,195365
OK,80,34,689,80,2014-08-01T19:55:00,0,20810874,195365
OK,80,34,689,80,2014-08-01T20:00:00,0,20811320,195365
OK,80,34,689,80,2014-08-01T20:05:00,0,20811493,195365
OK,80,34,689,80,2014-08-01T20:10:00,0,20811696,195365
OK,80,34,689,80,2014-08-01T20:15:00,0,20811902,195365
OK,80,34,689,80,2014-08-01T20:20:00,0,20812111,195365
OK,80,34,689,80,2014-08-01T20:25:00,0,20812330,195365
OK,80,34,689,80,2014-08-01T20:30:00,0,20812544,195365
OK,80,34,689,80,2014-08-01T20:35:00,0,20812752,195365
OK,80,34,689,80,2014-08-01T20:40:00,0,20812955,195365
OK,80,34,689,80,2014-08-01T20:45:00,0,20813162,195365
OK,80,34,689,80,2014-08-01T20:50:00,0,20813373,195365
OK,80,34,689,80,2014-08-01T20:55:00,0,20813603,195365
OK,80,34,689,80,2014-08-01T21:00:00,0,20813841,195365
OK,80,34,689,80,2014-08-01T21:05:00,0,20814018,195365
OK,80,34,689,80,2014-08-01T21:10:00,0,20814257,195365
OK,80,34,689,80,2014-08-01T21:15:00,0,20814453,195365
OK,80,34,689,80,2014-08-01T21:20:00,0,20814660,195365
OK,80,34,689,80,2014-08-01T21:25:00,0,20814889,195365
OK,80,34,689,80,2014-08-01T21:30:00,0,20815165,195365
OK,80,34,689,80,2014-08-01T21:35:00,0,20815398,195365
OK,80,34,689,80,2014-08-01T21:40:00,0,20815622,195365
OK,80,34,689,80,2014-08-01T21:45:00,0,20815859,195365
OK,80,34,689,80,2014-08-01T21:50:00,0,20816100,195365
OK,80,34,689,80,2014-08-01T21:55:00,0,20816335,195365
OK,80,34,689,80,2014-08-01T22:00:00,0,20816603,195365
OK,80,34,689,80,2014-08-01T22:05:00,0,20817052,195365
OK,80,34,689,80,2014-08-01T22:10:00,0,20817374,195365
OK,80,34,689,80,2014-08-01T22:15:00,0,20817803,195365
OK,80,34,689,80,2014-08-01T22:20:00,0,20818093,195365
OK,80,34,689,80,2014-08-01T22:25:00,0,20818409,195365
OK,80,34,689,80,2014-08-01T22:30:00,0,20818743,195365
OK,80,34,689,80,2014-08-01T22:35:00,0,20819045,195365
OK,80,34,689,80,2014-08-01T22:40:00,0,20819227,195365
OK,80,34,689,80,2014-08-01T22:45:00,0,20819515,195365
OK,80,34,689,80,2014-08-01T22:50:00,0,20819750,195365
OK,80,34,689,80,2014-08-01T22:55:00,0,20820003,195365
OK,80,34,689,80,2014-08-01T23:00:00,0,20820179,195365
OK,80,34,689,80,2014-08-01T23:05:00,0,20820432,195365
OK,80,34,689,80,2014-08-01T23:10:00,0,20820662,195365
OK,80,34,689,80,2014-08-01T23:15:00,0,20820850,195365
OK,80,34,689,80,2014-08-01T23:20:00,0,20821100,195365
OK,80,34,689,80,2014-08-01T23:25:00,0,20821278,195365
OK,80,34,689,80,2014-08-01T23:30:00,0,20821504,195365
OK,80,34,689,80,2014-08-01T23:35:00,0,20821749,195365
OK,80,34,689,80,2014-08-01T23:40:00,0,20821928,195365
OK,80,34,689,80,2014-08-01T23:45:00,0,20822151,195365
OK,80,34,689,80,2014-08-01T23:50:00,0,20822418,195365
OK,80,34,689,80,2014-08-01T23:55:00,0,20822744,195365
OK,80,34,689,80,2014-08-02T00:00:00,0,20823042,195365
OK,80,34,689,80,2014-08-02T00:05:00,0,20823491,195365
OK,80,34,689,80,2014-08-02T00:10:00,0,20823940,195365
OK,80,34,689,80,2014-08-02T00:15:00,0,20824389,195365
OK,80,34,689,80,2014-08-02T00:20:00,0,20824838,195365
OK,80,34,689,80,2014-08-02T00:25:00,0,20825287,195365
OK,80,34,689,80,2014-08-02T00:30:00,0,20825736,195365
OK,80,34,689,80,2014-08-02T00:35:00,0,20826185,195365
OK,80,34,689,80,2014-08-02T00:40:00,0,20826634,195365
OK,80,34,689,80,2014-08-02T00:45:00,0,20827083,195365
OK,80,34,689,80,2014-08-02T00:50:00,0,20827532,195365
OK,80,34,689,80,2014-08-02T00:55:00,0,20827981,195365
OK,80,34,689,80,2014-08-02T01:00:00,0,20828430,195365
OK,80,34,689,80,2014-08-02T01:05:00,0,20828879,195365
OK,80,34,689,80,2014-08-02T01:10:00,0,20829328,195365
OK,80,34,689,80,2014-08-02T01:15:00,0,20829777,195365
OK,80,34,689,80,2014-08-02T01:20:00,0,20830226,195365
OK,80,34,689,80,2014-08-02T01:25:00,0,20830675,195365
OK,80,34,689,80,2014-08-02T01:30:00,0,20831124,195365
OK,80,34,689,80,2014-08-02T01:35:00,0,20831573,195365
OK,80,34,689,80,2014-08-02T01:40:00,0,20832022,195365
OK,80,34,689,80,2014-08-02T01:45:00,0,20832471,195365
OK,80,34,689,80,2014-08-02T01:50:00,0,20832920,195365
OK,80,34,689,80,2014-08-02T01:55:00,0,20833369,195365
OK,80,34,689,80,2014-08-02T02:00:00,0,20833818,195365
OK,80,34,689,80,2014-08-02T02:05:00,0,20834267,195365
OK,80,34,689,80,2014-08-02T02:10:00,0,20834716,195365
OK,80,34,689,80,2014-08-02T02:15:00,0,20835165,195365
OK,80,34,689,80,2014-08-02T02:20:00,0,20835614,195365
OK,80,34,689,80,2014-08-02T02:25:00,0,20836063,195365
OK,80,34,689,80,2014-08-02T02:30:00,0,20836512,195365
OK,80,34,689,80,2014-08-02T02:35:00,0,20836961,195365
OK,80,34,689,80,2014-08-02T02:40:00,0,20837410,195365
OK,80,34,689,80,2014-08-02T02:45:00,0,20837859,195365
OK,80,34,689,80,2014-08-02T02:50:00,0,20838308,195365
OK,80,34,689,80,2014-08-02T02:55:00,0,20838757,195365
OK,80,34,689,80,2014-08-02T03:00:00,0,20839206,195365
OK,80,34,689,80,2014-08-02T03:05:00,0,20839655,195365
OK,80,34,689,80,2014-08-02T03:10:00,0,20840104,195365
OK,80,34,689,80,2014-08-02T03:15:00,0,20840553,195365
OK,80,34,689,80,2014-08-02T03:20:00,0,20841002,195365
OK,80,34,689,80,2014-08-02T03:25:00,0,20841451,195365
OK,80,34,689,80,2014-08-02T03:30:00,0,20841900,195365
OK,80,34,689,80,2014-08-02T03:35:00,0,20842349,195365
OK,80,34,689,80,2014-08-02T03:40:00,0,20842798,195365
OK,80,34,689,80,2014-08-02T03:45:00,0,20843247,195365
OK,80,34,689,80,2014-08-02T03:50:00,0,20843696,195365
OK,80,34,689,80,2014-08-02T03:55:00,0,20844145,195365
OK,80,34,689,80,2014-08-02T04:00:00,0,20844594,195365
OK,80,34,689,80,2014-08-02T04:05:00,0,20844725,195365
OK,80,34,689,80,2014-08-02T04:10:00,0,20845055,195365
OK,80,34,689,80,2014-08-02T04:15:00,0,20845235,195365
OK,80,34,689,80,2014-08-02T04:20:00,0,20845591,195365
OK,80,34,689,80,2014-08-02T04:25:00,0,20845959,195365
OK,80,34,689,80,2014-08-02T04:30:00,0,20846147,195365
OK,80,34,689,80,2014-08-02T04:35:00,0,20846514,195365
OK,80,34,689,80,2014-08-02T04:40:00,0,20846897,195365
OK,80,34,689,80,2014-08-02T04:45:00,0,20847156,195365
OK,80,34,689,80,2014-08-02T04:50:00,0,20847522,195365
OK,80,34,689,80,2014-08-02T04:55:00,0,20847879,195365
OK,80,34,689,80,2014-08-02T05:00:00,0,20848239,195365
OK,80,34,689,80,2014-08-02T05:05:00,0,20848403,195365
OK,80,34,689,80,2014-08-02T05:10:00,0,20848757,195365
OK,80,34,689,80,2014-08-02T05:15:00,0,20848949,195365
OK,80,34,689,80,2014-08-02T05:20:00,0,20849293,195365
OK,80,34,689,80,2014-08-02T05:30:00,0,20849818,195365
OK,80,34,689,80,2014-08-02T05:35:00,0,20850090,195365
OK,80,34,689,80,2014-08-02T05:40:00,0,20850383,195365
OK,80,34,689,80,2014-08-02T05:45:00,0,20850684,195365
OK,80,34,689,80,2014-08-02T05:50:00,0,20851042,195365
OK,80,34,689,80,2014-08-02T05:55:00,0,20851296,195365
OK,80,34,689,80,2014-08-02T06:00:00,0,20851599,195365
OK,80,34,689,80,2014-08-02T06:05:00,0,20852048,195365
OK,80,34,689,80,2014-08-02T06:10:00,0,20852497,195365
OK,80,34,689,80,2014-08-02T06:15:00,0,20852946,195365
OK,80,34,689,80,2014-08-02T06:20:00,0,20853395,195365
OK,80,34,689,80,2014-08-02T06:25:00,0,20853844,195365
OK,80,34,689,80,2014-08-02T06:30:00,0,20854293,195365
OK,80,34,689,80,2014-08-02T06:35:00,0,20854742,195365
OK,80,34,689,80,2014-08-02T06:40:00,0,20855191,195365
OK,80,34,689,80,2014-08-02T06:45:00,0,20855640,195365
OK,80,34,689,80,2014-08-02T06:50:00,0,20856089,195365
OK,80,34,689,80,2014-08-02T06:55:00,0,20856538,195365
OK,80,34,689,80,2014-08-02T07:00:00,0,20856987,195365
OK,80,34,689,80,2014-08-02T07:05:00,0,20857436,195365
OK,80,34,689,80,2014-08-02T07:10:00,0,20857885,195365
OK,80,34,689,80,2014-08-02T07:15:00,0,20858334,195365
OK,80,34,689,80,2014-08-02T07:20:00,0,20858783,195365
OK,80,34,689,80,2014-08-02T07:25:00,0,20859232,195365
OK,80,34,689,80,2014-08-02T07:30:00,0,20859681,195365
OK,80,34,689,80,2014-08-02T07:35:00,0,20860130,195365
OK,80,34,689,80,2014-08-02T07:40:00,0,20860579,195365
OK,80,34,689,80,2014-08-02T07:45:00,0,20861028,195365
OK,80,34,689,80,2014-08-02T07:50:00,0,20861477,195365
OK,80,34,689,80,2014-08-02T07:55:00,0,20861926,195365
OK,80,34,689,80,2014-08-02T08:00:00,0,20862375,195365
OK,80,34,689,80,2014-08-02T08:05:00,0,20862824,195365
OK,80,34,689,80,2014-08-02T08:10:00,0,20863273,195365
OK,80,34,689,80,2014-08-02T08:15:00,0,20863722,195365
OK,80,34,689,80,2014-08-02T08:20:00,0,20864171,195365
OK,80,34,689,80,2014-08-02T08:25:00,0,20864620,195365
OK,80,34,689,80,2014-08-02T08:30:00,0,20865069,195365
OK,80,34,689,80,2014-08-02T08:35:00,0,20865518,195365
OK,80,34,689,80,2014-08-02T08:40:00,0,20865967,195365
OK,80,34,689,80,2014-08-02T08:45:00,0,20866416,195365
OK,80,34,689,80,2014-08-02T08:50:00,0,20866865,195365
OK,80,34,689,80,2014-08-02T08:55:00,0,20867314,195365
OK,80,34,689,80,2014-08-02T09:00:00,0,20867763,195365
OK,80,34,689,80,2014-08-02T09:05:00,0,20868212,195365
OK,80,34,689,80,2014-08-02T09:10:00,0,20868661,195365
OK,80,34,689,80,2014-08-02T09:15:00,0,20869110,195365
OK,80,34,689,80,2014-08-02T09:20:00,0,20869559,195365
OK,80,34,689,80,2014-08-02T09:25:00,0,20870008,195365
OK,80,34,689,80,2014-08-02T09:30:00,0,20870457,195365
OK,80,34,689,80,2014-08-02T09:35:00,0,20870906,195365
OK,80,34,689,80,2014-08-02T09:40:00,0,20871355,195365
OK,80,34,689,80,2014-08-02T09:45:00,0,20871804,195365
OK,80,34,689,80,2014-08-02T09:50:00,0,20872253,195365
OK,80,34,689,80,2014-08-02T09:55:00,0,20872702,195365
OK,80,34,689,80,2014-08-02T10:00:00,0,20873151,195365
OK,80,34,689,80,2014-08-02T10:05:00,0,20873600,195365
OK,80,34,689,80,2014-08-02T10:10:00,0,20874049,195365
OK,80,34,689,80,2014-08-02T10:15:00,0,20874498,195365
OK,80,34,689,80,2014-08-02T10:20:00,0,20874947,195365
OK,80,34,689,80,2014-08-02T10:25:00,0,20875396,195365
OK,80,34,689,80,2014-08-02T10:30:00,0,20875845,195365
OK,80,34,689,80,2014-08-02T10:35:00,0,20876294,195365
OK,80,34,689,80,2014-08-02T10:40:00,0,20876743,195365
OK,80,34,689,80,2014-08-02T10:45:00,0,20877192,195365
OK,80,34,689,80,2014-08-02T10:50:00,0,20877641,195365
OK,80,34,689,80,2014-08-02T10:55:00,0,20878090,195365
OK,80,34,689,80,2014-08-02T11:00:00,0,20878539,195365
OK,80,34,689,80,2014-08-02T11:05:00,0,20878988,195365
OK,80,34,689,80,2014-08-02T11:10:00,0,20879437,195365
OK,80,34,689,80,2014-08-02T11:15:00,0,20879886,195365
OK,80,34,689,80,2014-08-02T11:20:00,0,20880335,195365
OK,80,34,689,80,2014-08-02T11:25:00,0,20880784,195365
OK,80,34,689,80,2014-08-02T11:30:00,0,20881233,195365
OK,80,34,689,80,2014-08-02T11:35:00,0,20881682,195365
OK,80,34,689,80,2014-08-02T11:40:00,0,20882131,195365
OK,80,34,689,80,2014-08-02T11:45:00,0,20882580,195365
OK,80,34,689,80,2014-08-02T11:50:00,0,20883029,195365
OK,80,34,689,80,2014-08-02T11:55:00,0,20883478,195365
OK,80,34,689,80,2014-08-02T12:00:00,0,20883927,195365
OK,80,34,689,80,2014-08-02T12:05:00,0,20884376,195365
OK,74,37,689,74,2014-08-02T12:10:00,2,20884825,195365
OK,74,37,689,74,2014-08-02T12:15:00,2,20885274,195365
OK,74,37,689,74,2014-08-02T12:20:00,0,20885723,195365
OK,74,37,689,74,2014-08-02T12:25:00,0,20886172,195365
OK,74,37,689,74,2014-08-02T12:30:00,0,20886621,195365
OK,74,37,689,74,2014-08-02T12:35:00,0,20887070,195365
OK,74,37,689,74,2014-08-02T12:40:00,0,20887519,195365
OK,74,37,689,74,2014-08-02T12:45:00,0,20887968,195365
OK,74,37,689,74,2014-08-02T12:50:00,0,20888417,195365
OK,74,37,689,74,2014-08-02T12:55:00,0,20888866,195365
OK,74,37,689,74,2014-08-02T13:00:00,0,20889315,195365
OK,74,37,689,74,2014-08-02T13:05:00,0,20889764,195365
OK,74,37,689,74,2014-08-02T13:10:00,0,20890213,195365
OK,74,37,689,74,2014-08-02T13:15:00,0,20890662,195365
OK,74,37,689,74,2014-08-02T13:20:00,0,20891111,195365
OK,74,37,689,74,2014-08-02T13:25:00,0,20891560,195365
OK,74,37,689,74,2014-08-02T13:30:00,0,20892009,195365
OK,48,57,689,48,2014-08-02T13:35:00,1,20892458,195365
OK,48,57,689,48,2014-08-02T13:40:00,0,20892907,195365
OK,48,57,689,48,2014-08-02T13:45:00,0,20893356,195365
OK,48,57,689,48,2014-08-02T13:50:00,0,20893805,195365
OK,48,57,689,48,2014-08-02T13:55:00,0,20894254,195365
OK,48,57,689,48,2014-08-02T14:00:00,0,20894703,195365
OK,48,57,689,48,2014-08-02T14:05:00,0,20895152,195365
OK,48,57,689,48,2014-08-02T14:10:00,0,20895601,195365
OK,48,57,689,48,2014-08-02T14:15:00,0,20896050,195365
OK,48,57,689,48,2014-08-02T14:20:00,0,20896499,195365
OK,48,57,689,48,2014-08-02T14:25:00,0,20896948,195365
OK,48,57,689,48,2014-08-02T14:30:00,0,20897397,195365
OK,48,57,689,48,2014-08-02T14:35:00,0,20897846,195365
OK,48,57,689,48,2014-08-02T14:40:00,0,20898295,195365
OK,48,57,689,48,2014-08-02T14:45:00,0,20898744,195365
OK,48,57,689,48,2014-08-02T14:50:00,0,20899193,195365
OK,48,57,689,48,2014-08-02T14:55:00,0,20899642,195365
OK,48,57,689,48,2014-08-02T15:00:00,0,20900091,195365
OK,48,57,689,48,2014-08-02T15:05:00,0,20900540,195365
OK,48,57,689,48,2014-08-02T15:10:00,0,20900989,195365
OK,48,57,689,48,2014-08-02T15:15:00,0,20901438,195365
OK,48,57,689,48,2014-08-02T15:20:00,0,20901887,195365
OK,48,57,689,48,2014-08-02T15:25:00,0,20902336,195365
OK,48,57,689,48,2014-08-02T15:30:00,0,20902785,195365
OK,48,57,689,48,2014-08-02T15:35:00,0,20903234,195365
OK,48,57,689,48,2014-08-02T15:40:00,0,20903683,195365
OK,48,57,689,48,2014-08-02T15:45:00,0,20904132,195365
OK,48,57,689,48,2014-08-02T15:50:00,0,20904581,195365
OK,86,32,689,86,2014-08-02T15:55:00,1,20905030,195365
OK,86,32,689,86,2014-08-02T16:00:00,0,20905479,195365
OK,86,32,689,86,2014-08-02T16:05:00,0,20905928,195365
OK,86,32,689,86,2014-08-02T16:10:00,0,20906377,195365
OK,86,32,689,86,2014-08-02T16:15:00,0,20906826,195365
OK,86,32,689,86,2014-08-02T16:20:00,0,20907275,195365
OK,82,33,689,82,2014-08-02T16:25:00,1,20907724,195365
OK,82,33,689,82,2014-08-02T16:30:00,1,20908173,195365
OK,82,33,689,82,2014-08-02T16:35:00,0,20908622,195365
OK,82,33,689,82,2014-08-02T16:40:00,0,20909071,195365
OK,82,33,689,82,2014-08-02T16:45:00,0,20909520,195365
OK,82,33,689,82,2014-08-02T16:50:00,0,20909969,195365
OK,82,33,689,82,2014-08-02T16:55:00,0,20910418,195365
OK,82,33,689,82,2014-08-02T17:00:00,0,20910867,195365
OK,82,33,689,82,2014-08-02T17:05:00,0,20911316,195365
OK,82,33,689,82,2014-08-02T17:10:00,0,20911765,195365
OK,82,33,689,82,2014-08-02T17:15:00,0,20912214,195365
OK,82,33,689,82,2014-08-02T17:20:00,0,20912663,195365
OK,82,33,689,82,2014-08-02T17:25:00,0,20913112,195365
OK,82,33,689,82,2014-08-02T17:30:00,0,20913561,195365
OK,82,33,689,82,2014-08-02T17:35:00,0,20914010,195365
OK,82,33,689,82,2014-08-02T17:40:00,0,20914459,195365
OK,82,33,689,82,2014-08-02T17:45:00,0,20914908,195365
OK,82,33,689,82,2014-08-02T17:50:00,0,20915357,195365
OK,82,33,689,82,2014-08-02T17:55:00,0,20915806,195365
OK,82,33,689,82,2014-08-02T18:00:00,0,20916255,195365
OK,82,33,689,82,2014-08-02T18:05:00,0,20916704,195365
OK,82,33,689,82,2014-08-02T18:10:00,0,20917153,195365
OK,82,33,689,82,2014-08-02T18:15:00,0,20917602,195365
OK,67,41,689,67,2014-08-02T18:20:00,1,20918051,195365
OK,67,41,689,67,2014-08-02T18:25:00,0,20918500,195365
OK,67,41,689,67,2014-08-02T18:30:00,0,20918949,195365
OK,67,41,689,67,2014-08-02T18:35:00,0,20919398,195365
OK,67,41,689,67,2014-08-02T18:40:00,0,20919847,195365
OK,67,41,689,67,2014-08-02T18:45:00,0,20920296,195365
OK,67,41,689,67,2014-08-02T18:50:00,0,20920745,195365
OK,67,41,689,67,2014-08-02T18:55:00,0,20921194,195365
OK,67,41,689,67,2014-08-02T19:00:00,0,20921643,195365
OK,67,41,689,67,2014-08-02T19:05:00,0,20922092,195365
OK,67,41,689,67,2014-08-02T19:10:00,0,20922541,195365
OK,67,41,689,67,2014-08-02T19:15:00,0,20922990,195365
OK,67,41,689,67,2014-08-02T19:20:00,0,20923439,195365
OK,67,41,689,67,2014-08-02T19:25:00,0,20923888,195365
OK,67,41,689,67,2014-08-02T19:30:00,0,20924337,195365
OK,67,41,689,67,2014-08-02T19:35:00,0,20924786,195365
OK,67,41,689,67,2014-08-02T19:40:00,0,20925235,195365
OK,67,41,689,67,2014-08-02T19:45:00,0,20925684,195365
OK,67,41,689,67,2014-08-02T19:50:00,0,20926133,195365
OK,67,41,689,67,2014-08-02T19:55:00,0,20926582,195365